Location: Newark
(44.3681°N, 100.3364°W)
Time: 12:13:17
(UTC+00:00)

Vanguard 3 - Visible Passes

Search period start: 17 February 2020 00:00
Search period end: 27 February 2020 00:00
Orbit: 508 x 3263 km, 33.3° (Epoch: 16 February)

Date Brightness Start Highest point End Pass type
(mag) Time Alt. Az. Time Alt. Az. Time Alt. Az.
17 Feb 11.8 01:43:58 10° WSW 01:52:02 14° SW 02:00:33 10° SSW visible
18 Feb 11.7 00:25:18 10° W 00:36:38 23° SW 00:49:49 10° S visible
19 Feb 12.0 01:30:28 10° WSW 01:34:45 11° SW 01:39:12 10° SSW visible
